Location: Arrodets-la-Barthe
(43.0306°N, 0.2829°E)
Time: 17:25:17
(UTC+00:00)

Lacrosse 4 Rocket - Pass Details

Date: 31 May 2022
Orbit: 541 x 611 km, 68.0° (Epoch: 30 June)

Event Time Altitude Azimuth Distance (km) Brightness Sun altitude
Exits shadow 01:46:55 12° 133° (SE) 1,779 3.8 -20.3°
Maximum altitude 01:48:41 15° 106° (ESE) 1,608 3.8 -20.1°
Drops below altitude 10° 01:51:02 10° 72° (ENE) 1,882 4.7 -19.9°
Sets 01:54:04 0° 48° (NE) 2,769 6.2 -19.7°
